Home   Weather   Portimão   Past weeks

Flag for Portugal Past Weather in Portimão, Portugal — Yesterday and Last 2 Weeks

Now
63 °F

Passing clouds.


Feels Like: 63 °F
Forecast: N/A
Wind: 14 mph from Southeast

Location: Faro / Aeroporto

Current Time: Dec 9, 2016 at 7:30:33 pm

Latest Report: Dec 9, 2016 at 7:00 pm


Visibility: N/A

Pressure: 30.33 "Hg

Humidity: 88%

Dew Point: 59 °F

Location of PortimãoLocation

Past Weather in Portimão — Graph

°F

Portimão Temperature Yesterday

Maximum temperature yesterday: 64 °F (at 2:00 pm)
Minimum temperature yesterday: 55 °F (at 6:00 am)
Average temperature yesterday: 61 °F

High & Low Weather Summary for the Past Weeks

 TemperatureHumidityPressure
High70 °F (Dec 5, 3:00 pm)100% (Nov 26, 6:00 am)30.36 "Hg (Nov 26, 6:00 am)
Low48 °F (Nov 28, 5:30 am)55% (Nov 26, 3:30 pm)29.56 "Hg (Nov 27, 4:30 am)
Average60 °F85%29.96 "Hg
* Reported Nov 24 6:00 pm — Dec 9 6:00 pm, Portimão, Weather by CustomWeather, © 2016

Note: Actual official high and low records may vary slightly from our data, if they occured in-between our weather recording intervals... More about our weather records

Advertising

Portimão Weather History for the Previous 24 Hours

Scroll right to see more
 ConditionsComfort  
Time TempWeatherWind HumidityBarometerVisibility
6:00 pm
Fri, Dec 9
63 °FPassing clouds.13 mph88%30.30 "HgN/A
5:30 pm63 °FPassing clouds.12 mph88%30.30 "HgN/A
5:00 pm64 °FPassing clouds.15 mph83%30.30 "HgN/A
4:30 pm66 °FPassing clouds.16 mph78%30.30 "HgN/A
4:00 pm66 °FPassing clouds.18 mph78%30.30 "HgN/A
3:30 pm66 °FPassing clouds.18 mph78%30.30 "HgN/A
3:00 pm66 °FPassing clouds.20 mph78%30.30 "HgN/A
2:30 pm66 °FPassing clouds.20 mph78%30.30 "HgN/A
2:00 pm66 °FPassing clouds.17 mph83%30.30 "HgN/A
1:30 pm66 °FPassing clouds.21 mph78%30.30 "HgN/A
1:00 pm66 °FPassing clouds.15 mph83%30.30 "HgN/A
12:30 pm64 °FPartly sunny.14 mph83%30.33 "HgN/A
12:00 pm64 °FPartly sunny.14 mph83%30.33 "HgN/A
11:30 am63 °FScattered clouds.14 mph83%30.36 "HgN/A
11:00 am61 °FScattered clouds.14 mph83%30.36 "HgN/A
10:30 am61 °FScattered clouds.14 mph83%30.33 "HgN/A
10:00 am61 °FScattered clouds.15 mph77%30.33 "HgN/A
9:30 am61 °FBroken clouds.16 mph83%30.33 "HgN/A
9:00 am59 °FPartly sunny.12 mph88%30.33 "HgN/A
8:30 am59 °FBroken clouds.15 mph82%30.33 "HgN/A
8:00 am59 °FBroken clouds.14 mph88%30.33 "HgN/A
7:30 am59 °FPartly cloudy.13 mph88%30.33 "HgN/A
7:00 am61 °FPartly cloudy.14 mph83%30.30 "HgN/A
6:30 am61 °FPartly cloudy.14 mph83%30.30 "HgN/A
6:00 am59 °FPartly cloudy.13 mph88%30.30 "HgN/A
5:30 am59 °FPassing clouds.13 mph88%30.30 "HgN/A
4:30 am63 °FPassing clouds.21 mph83%30.30 "HgN/A
4:00 am63 °FPassing clouds.21 mph83%30.30 "HgN/A
3:30 am61 °FPassing clouds.14 mph83%30.30 "HgN/A
3:00 am61 °FPassing clouds.13 mph83%30.30 "HgN/A
2:30 am61 °FPassing clouds.16 mph83%30.30 "HgN/A
2:00 am61 °FPassing clouds.13 mph83%30.30 "HgN/A
1:30 am61 °FPassing clouds.15 mph83%30.30 "HgN/A
1:00 am63 °FMostly cloudy.22 mph83%30.33 "HgN/A
12:30 am63 °FPassing clouds.23 mph83%30.33 "HgN/A
12:00 am63 °FPassing clouds.18 mph83%30.33 "HgN/A
11:30 pm
Thu, Dec 8
63 °FPassing clouds.20 mph83%30.33 "HgN/A
11:00 pm63 °FPassing clouds.23 mph77%30.33 "HgN/A
10:30 pm63 °FPassing clouds.24 mph77%30.33 "HgN/A
10:00 pm63 °FClear.24 mph77%30.33 "Hg10 mi
9:30 pm63 °FClear.23 mph77%30.33 "Hg10 mi
9:00 pm63 °FClear.26 mph73%30.33 "Hg10 mi
8:30 pm63 °FClear.24 mph73%30.33 "Hg10 mi
8:00 pm63 °FClear.22 mph73%30.33 "Hg10 mi
7:30 pm63 °FClear.23 mph73%30.33 "Hg10 mi
7:00 pm63 °FPassing clouds.22 mph73%30.33 "HgN/A
Weather by CustomWeather, © 2016

See weather overviewHow to use our weather pages